[[{"header":{"parameterUnit":"m.s-1","parameterCategory":1,"la1":30.2991,"la2":30.254,"lo1":-89.0895,"lo2":-89.0444,"dy":0.0017,"dx":0.0017,"nx":28,"ny":28,"refTime":"2024-07-24T21:00:00:Z","depth":0,"parameterNumber":2,"parameterNumberName":"U-component_of_WINDS"},"data":[0,0,0,0,0,0,0,0,0,0,0,0,0,0,0,0,0,0,0,0,0,0,0,0,0,0,0,0,0,0,0,0,0,0,0,0,0,0,0,0,0,0,0,0,0,0,0,0,0,0,0,0,0,0,0,0,0,0,-2.4346,-2.4346,0,-2.436,-2.4361,-2.4361,-2.4351,-2.4351,-2.435,-2.435,-2.4363,-2.4364,-2.4364,0,0,0,0,0,0,0,0,0,0,0,0,0,-2.4308,-2.4309,-2.4346,-2.4346,-2.4346,-2.436,-2.4361,-2.4361,-2.4351,-2.4351,-2.435,-2.435,-2.4363,-2.4363,-2.4364,0,0,0,0,0,0,0,0,0,0,0,0,0,-2.4324,-2.4309,-2.4346,-2.4343,-2.4343,-2.436,-2.4361,-2.4361,-2.4351,-2.4351,-2.435,-2.4349,-2.4362,-2.4363,-2.4365,-2.4385,0,0,-2.4368,-2.4368,0,0,0,0,0,0,0,0,-2.4323,-2.4325,-2.4343,-2.4343,-2.4343,-2.4353,-2.4352,-2.4369,-2.4351,-2.4348,-2.435,-2.4349,-2.436,-2.4361,-2.4365,-2.4385,-2.4386,-2.4368,-2.4369,-2.4369,-2.437,0,0,0,0,0,0,0,-2.4322,-2.4325,-2.4351,-2.4344,-2.4344,-2.4341,-2.4342,-2.4355,-2.4357,-2.4348,-2.4348,-2.435,-2.436,-2.4364,-2.4366,-2.4386,-2.4368,-2.4369,-2.437,-2.437,-2.4423,-2.4424,0,0,0,0,0,0,-2.4321,-2.4324,-2.4351,-2.4352,-2.4331,-2.4342,-2.4344,-2.4351,-2.4357,-2.4358,-2.435,-2.4349,-2.4363,-2.4364,-2.4366,-2.439,-2.4369,-2.437,-2.4371,-2.4423,-2.4423,-2.4424,0,0,0,0,0,0,-2.4321,-2.4324,-2.435,-2.4338,-2.4341,-2.4343,-2.4351,-2.4351,-2.4356,-2.4359,-2.4359,-2.4354,-2.4362,-2.4365,-2.438,-2.439,-2.4371,-2.4372,-2.4422,-2.4423,-2.4424,-2.4438,0,0,0,0,0,0,-2.4319,-2.4324,-2.4331,-2.4338,-2.4342,-2.4365,-2.4352,-2.4352,-2.4358,-2.4357,-2.4363,-2.4363,-2.4362,-2.4379,-2.4381,-2.4391,-2.4373,-2.4421,-2.4422,-2.4424,-2.4436,-2.4439,-2.4441,0,0,0,0,0,-2.4318,-2.4334,-2.4332,-2.4335,-2.4351,-2.4365,-2.4367,-2.4366,-2.4359,-2.4366,-2.4369,-2.4363,-2.4389,-2.438,-2.4383,-2.4394,-2.442,-2.4422,-2.4423,-2.4435,-2.4438,-2.4441,0,0,0,0,0,0,-2.4327,-2.4335,-2.4332,-2.4351,-2.4358,-2.4364,-2.4373,-2.437,-2.4378,-2.4376,-2.4374,-2.4376,-2.4392,-2.4395,-2.4385,-2.4414,-2.4403,-2.4406,-2.4411,-2.4414,-2.4417,-2.4415,-2.4374,0,0,0,0,0,-2.4332,-2.4343,-2.4349,-2.4364,-2.4368,-2.437,-2.4376,-2.4375,-2.4381,-2.4384,-2.4387,-2.4393,-2.4403,-2.4409,-2.4418,-2.4437,-2.4438,-2.4446,-2.4449,-2.4451,-2.4452,-2.4462,-2.4466,-2.443,-2.443,-2.443,0,0,-2.434,-2.4346,-2.4353,-2.4367,-2.4372,-2.4383,-2.4372,-2.4384,-2.4392,-2.4385,-2.44,-2.4403,-2.441,-2.4428,-2.4436,-2.443,-2.4463,-2.4453,-2.4454,-2.4455,-2.4464,-2.4468,-2.4471,-2.4431,-2.4431,-2.443,0,0,-2.4362,-2.4367,-2.4381,-2.4387,-2.4395,-2.4397,-2.44,-2.4407,-2.4409,-2.4424,-2.442,-2.4429,-2.4446,-2.4451,-2.4455,-2.4481,-2.4476,-2.4484,-2.4497,-2.4507,-2.4509,-2.4512,-2.452,-2.4523,-2.4486,-2.4486,-2.4486,0,-2.4371,-2.4388,-2.4389,-2.4401,-2.4407,-2.4403,-2.4417,-2.4422,-2.4433,-2.4437,-2.4431,-2.4453,-2.4457,-2.4475,-2.4482,-2.4486,-2.4489,-2.4482,-2.4509,-2.4512,-2.4514,-2.4522,-2.4525,-2.4487,-2.4486,-2.4486,-2.4486,0,-2.4399,-2.4411,-2.4421,-2.4433,-2.444,-2.4453,-2.4455,-2.4463,-2.4462,-2.4464,-2.448,-2.4485,-2.4495,-2.45,-2.4498,-2.4518,-2.4515,-2.451,-2.4499,-2.4518,-2.4525,-2.4529,-2.4488,-2.4488,-2.4487,-2.4487,0,0,-2.4424,-2.4437,-2.4441,-2.4446,-2.4456,-2.4465,-2.4478,-2.4489,-2.4495,-2.4503,-2.4514,-2.4529,-2.4524,-2.4529,-2.4529,-2.4538,-2.4557,-2.4531,-2.4531,-2.4535,-2.4579,-2.4582,-2.4585,-2.4554,-2.4555,-2.4555,-2.4578,0,-2.4445,-2.4469,-2.4471,-2.4492,-2.4503,-2.45,-2.4512,-2.4519,-2.4522,-2.4531,-2.4534,-2.4544,-2.4538,-2.4541,-2.455,-2.4553,-2.4565,-2.4551,-2.4563,-2.4564,-2.456,-2.4589,-2.4592,-2.4613,-2.4581,-2.4581,-2.4582,0,-2.4473,-2.4483,-2.4505,-2.4514,-2.4519,-2.4529,-2.454,-2.4549,-2.4557,-2.4559,-2.4566,-2.4564,-2.4577,-2.4568,-2.4586,-2.4576,-2.4581,-2.4584,-2.4584,-2.4584,-2.4573,-2.4589,-2.462,-2.4623,-2.4586,-2.4586,-2.4586,0,-2.4488,-2.4507,-2.4523,-2.4528,-2.4539,-2.4546,-2.4551,-2.4559,-2.4565,-2.4574,-2.4579,-2.4589,-2.4594,-2.4602,-2.4604,-2.4596,-2.4622,-2.4612,-2.4622,-2.4622,-2.4626,-2.4626,-2.4657,-2.4632,-2.4632,-2.4632,-2.4632,0,-2.451,-2.4524,-2.453,-2.454,-2.4555,-2.4557,-2.4572,-2.4576,-2.4584,-2.4594,-2.4592,-2.4602,-2.4603,-2.4613,-2.4614,-2.4629,-2.4631,-2.4632,-2.4632,-2.4632,-2.4631,-2.4634,-2.4632,-2.4633,-2.4632,-2.4632,-2.4632,0,-2.4529,-2.4534,-2.4551,-2.4561,-2.4563,-2.4574,-2.4582,-2.4591,-2.4595,-2.4608,-2.4611,-2.4616,-2.4628,-2.463,-2.4644,-2.4644,-2.4661,-2.466,-2.4659,-2.4658,-2.4668,-2.4667,-2.4701,-2.4706,-2.4679,-2.4679,-2.4679,0,-2.4542,-2.4553,-2.4564,-2.4572,-2.4577,-2.4589,-2.4596,-2.4599,-2.4606,-2.4617,-2.4625,-2.4637,-2.4646,-2.4665,-2.4669,-2.4679,-2.4678,-2.4689,-2.4679,-2.4679,-2.4677,-2.4676,-2.4676,-2.4691,-2.4691,-2.4691,-2.4691,0,-2.4565,-2.4567,-2.4578,-2.459,-2.4599,-2.4609,-2.4618,-2.4624,-2.4628,-2.4636,-2.4649,-2.4656,-2.4671,-2.4682,-2.4693,-2.4697,-2.4695,-2.4695,-2.4698,-2.4697,-2.4695,-2.4695,-2.4663,-2.4694,-2.4693,-2.4693,-2.4693,-2.4693,-2.4581,-2.459,-2.46,-2.4613,-2.462,-2.4629,-2.4638,-2.4643,-2.4654,-2.4667,-2.4668,-2.4681,-2.469,-2.4704,-2.4709,-2.4719,-2.4716,-2.472,-2.4721,-2.4721,-2.4722,-2.4695,-2.4721,-2.4721,-2.4721,-2.4721,-2.4721,0,-2.4603,-2.461,-2.4621,-2.4634,-2.4644,-2.4643,-2.4653,-2.4661,-2.4673,-2.4682,-2.4692,-2.4706,-2.4717,-2.4724,-2.4735,-2.4742,-2.4741,-2.4744,-2.4743,-2.4744,-2.4725,-2.4721,-2.4745,-2.4745,-2.4745,-2.4745,-2.4745,-2.4745,-2.4615,-2.4631,-2.4635,-2.4655,-2.4661,-2.4675,-2.4681,-2.4689,-2.4696,-2.4712,-2.4722,-2.4727,-2.4734,-2.4746,-2.4756,-2.4758,-2.4762,-2.4765,-2.4766,-2.4748,-2.4745,-2.4743,-2.4739,-2.4767,-2.4767,-2.4784,-2.4785,-2.4785]},{"header":{"parameterUnit":"m.s-1","parameterCategory":1,"la1":30.2991,"la2":30.254,"lo1":-89.0895,"lo2":-89.0444,"dy":0.0017,"dx":0.0017,"nx":28,"ny":28,"refTime":"2024-07-24T21:00:00:Z","depth":0,"parameterNumber":3,"parameterNumberName":"V-component_of_WINDS"},"data":[0,0,0,0,0,0,0,0,0,0,0,0,0,0,0,0,0,0,0,0,0,0,0,0,0,0,0,0,0,0,0,0,0,0,0,0,0,0,0,0,0,0,0,0,0,0,0,0,0,0,0,0,0,0,0,0,0,0,1.728,1.7279,0,1.721,1.7209,1.7208,1.7184,1.7185,1.7185,1.7185,1.7109,1.7106,1.7104,0,0,0,0,0,0,0,0,0,0,0,0,0,1.739,1.7388,1.728,1.7279,1.7279,1.721,1.7209,1.7208,1.7184,1.7185,1.7185,1.7185,1.7109,1.7107,1.7104,0,0,0,0,0,0,0,0,0,0,0,0,0,1.7333,1.7388,1.728,1.7259,1.7256,1.721,1.7209,1.7208,1.7184,1.7185,1.7185,1.7186,1.711,1.7107,1.7104,1.7073,0,0,1.7093,1.7091,0,0,0,0,0,0,0,0,1.7337,1.7329,1.7263,1.726,1.7257,1.7206,1.722,1.7162,1.7184,1.7211,1.7185,1.7186,1.7141,1.7135,1.712,1.7069,1.7066,1.7093,1.7091,1.7089,1.7088,0,0,0,0,0,0,0,1.7341,1.7332,1.7252,1.7262,1.7258,1.7251,1.7243,1.7209,1.7174,1.7209,1.7207,1.7199,1.7139,1.7124,1.7118,1.7065,1.7093,1.709,1.7087,1.7086,1.6985,1.6984,0,0,0,0,0,0,1.7349,1.7336,1.7254,1.725,1.7299,1.7249,1.724,1.7222,1.7174,1.7168,1.7199,1.7199,1.7129,1.7122,1.7116,1.7076,1.7089,1.7086,1.7084,1.6986,1.6985,1.6984,0,0,0,0,0,0,1.7351,1.7342,1.7257,1.7292,1.7281,1.7246,1.7226,1.7221,1.7205,1.7167,1.716,1.719,1.713,1.712,1.7084,1.7073,1.7084,1.7081,1.6986,1.6985,1.6985,1.6998,0,0,0,0,0,0,1.7354,1.7343,1.7332,1.7292,1.7279,1.7228,1.7226,1.7219,1.72,1.7198,1.7157,1.715,1.7129,1.7089,1.7081,1.7069,1.7078,1.6987,1.6986,1.6985,1.6999,1.6998,1.6997,0,0,0,0,0,1.7359,1.7337,1.7331,1.7322,1.7265,1.7228,1.722,1.7198,1.7199,1.7187,1.7163,1.7152,1.7076,1.7086,1.7076,1.7063,1.6988,1.6986,1.6985,1.6999,1.6998,1.6997,0,0,0,0,0,0,1.7375,1.7332,1.7325,1.729,1.7263,1.7224,1.7208,1.7198,1.7168,1.7168,1.714,1.7131,1.7096,1.7076,1.7087,1.7031,1.7031,1.7028,1.7045,1.7044,1.7044,1.7049,1.7075,0,0,0,0,0,1.7375,1.7349,1.7313,1.7286,1.7273,1.7243,1.7226,1.7211,1.7181,1.7169,1.7142,1.7112,1.7081,1.7061,1.7031,1.6996,1.6986,1.6982,1.6981,1.6981,1.6978,1.6957,1.6955,1.698,1.698,1.698,0,0,1.7374,1.7347,1.7332,1.7289,1.7266,1.7239,1.7233,1.7205,1.7184,1.7164,1.7128,1.7107,1.7072,1.7036,1.7018,1.7018,1.6969,1.6979,1.6979,1.6976,1.6956,1.6953,1.6951,1.6979,1.6979,1.6979,0,0,1.7358,1.7336,1.7311,1.7289,1.7255,1.7235,1.7229,1.7192,1.7177,1.7142,1.7126,1.71,1.7048,1.7024,1.7005,1.698,1.6969,1.6971,1.6968,1.6948,1.6946,1.6944,1.6935,1.6932,1.6969,1.6969,1.6969,0,1.736,1.7321,1.7299,1.7272,1.7253,1.7235,1.7209,1.7188,1.7145,1.7132,1.7132,1.7067,1.7042,1.7,1.6994,1.6979,1.6971,1.6976,1.6948,1.6946,1.6944,1.6935,1.6932,1.6969,1.6969,1.6969,1.6969,0,1.7326,1.7298,1.7282,1.7243,1.7222,1.7196,1.7169,1.715,1.7138,1.7118,1.7081,1.705,1.7014,1.7003,1.6989,1.6958,1.6959,1.6954,1.6954,1.6943,1.6934,1.693,1.697,1.697,1.697,1.6969,0,0,1.7318,1.7268,1.7262,1.7245,1.7206,1.7184,1.7156,1.7122,1.7106,1.7077,1.7053,1.701,1.7005,1.6984,1.6967,1.695,1.6932,1.6947,1.6946,1.6945,1.6896,1.69,1.6896,1.6925,1.6924,1.6923,1.6899,0,1.7297,1.7249,1.7229,1.7189,1.7163,1.7146,1.7122,1.7095,1.7076,1.705,1.7027,1.6998,1.6994,1.6981,1.6963,1.6938,1.6922,1.694,1.69,1.6899,1.691,1.6892,1.6895,1.6873,1.6895,1.6895,1.6894,0,1.7266,1.7239,1.7197,1.7162,1.7151,1.713,1.7097,1.7073,1.7041,1.7028,1.7005,1.6989,1.6958,1.6961,1.6918,1.6931,1.6913,1.6899,1.6897,1.6892,1.6896,1.6886,1.6866,1.6863,1.6889,1.6889,1.6889,0,1.7264,1.7217,1.7186,1.7171,1.713,1.7115,1.7097,1.7066,1.7047,1.7018,1.7005,1.6972,1.6954,1.6928,1.6904,1.6908,1.6862,1.6863,1.685,1.685,1.684,1.6841,1.6817,1.683,1.683,1.683,1.683,0,1.7243,1.7218,1.7185,1.7166,1.7137,1.7114,1.7086,1.7066,1.7039,1.7015,1.6997,1.6975,1.6944,1.6917,1.6898,1.6865,1.6857,1.6844,1.6839,1.6846,1.6847,1.6834,1.6834,1.6829,1.6829,1.683,1.683,0,1.7236,1.7213,1.7178,1.7142,1.7132,1.7113,1.7081,1.7061,1.7041,1.7011,1.7002,1.6971,1.6938,1.6912,1.6869,1.6856,1.6821,1.6815,1.6832,1.6829,1.6817,1.6819,1.6783,1.6777,1.6795,1.6795,1.6795,0,1.7223,1.7204,1.7167,1.715,1.7133,1.7106,1.7087,1.7063,1.7043,1.7006,1.6991,1.6957,1.6929,1.6878,1.685,1.6817,1.681,1.68,1.6805,1.6812,1.681,1.6811,1.6809,1.68,1.68,1.68,1.68,0,1.7204,1.7194,1.7168,1.7138,1.7116,1.709,1.7064,1.7051,1.7022,1.7001,1.6969,1.6947,1.6904,1.6871,1.6835,1.6814,1.6802,1.6798,1.6793,1.68,1.681,1.6804,1.683,1.6799,1.6799,1.6799,1.6799,1.6799,1.7194,1.7176,1.7147,1.7118,1.7097,1.7073,1.7053,1.7031,1.7004,1.6968,1.6955,1.6922,1.6891,1.6841,1.6821,1.6793,1.6792,1.6785,1.6783,1.6782,1.6782,1.6815,1.6787,1.6787,1.6787,1.6787,1.6787,0,1.7173,1.7154,1.7128,1.7093,1.7071,1.7063,1.7033,1.7015,1.6986,1.6959,1.6932,1.6894,1.6862,1.6832,1.6798,1.6782,1.6775,1.6774,1.6774,1.677,1.6786,1.6793,1.678,1.678,1.678,1.678,1.678,1.678,1.716,1.713,1.7116,1.7074,1.7055,1.7023,1.7007,1.6985,1.6963,1.6922,1.6896,1.6878,1.6849,1.6813,1.6782,1.6774,1.6762,1.6762,1.6753,1.6768,1.6769,1.677,1.6777,1.676,1.676,1.6739,1.6739,1.6739]}]]